Weather History for Jackson, MS

Change the Weather History Date:

Wednesday, March 6, 2013

  Actual Average Record
Temperature  
Mean Temperature 43 °F 54 °F  
Max Temperature 53 °F 66 °F 86 °F (1918)
Min Temperature 33 °F 43 °F 23 °F (1960)
Degree Days  
Heating Degree Days 22 11  
Month to date heating degree days 127 70  
Since 1 July heating degree days 1878 2062  
Cooling Degree Days 0 1  
Month to date cooling degree days 0 3  
Year to date cooling degree days 14 13  
Moisture  
Dew Point 26 °F    
Average Humidity 55    
Maximum Humidity 75    
Minimum Humidity 35    
Precipitation  
Precipitation 0.00 in 0.17 in 2.55 in (1941)
Month to date precipitation T 0.99  
Year to date precipitation 17.44 10.72  
Sea Level Pressure  
Sea Level Pressure 30.29 in    
Wind  
Wind Speed 8 mph (NNW)    
Max Wind Speed 21 mph    
Max Gust Speed 24 mph    
Visibility 10 miles    
Events      
T = Trace of Precipitation, MM = Missing Value Source: NWS Daily Summary

Daily Weather History Graph

Daily Weather History Graph

Search for Another Location

Airport:

Trip Planner

Search our weather history database for the weather conditions in past years. The results will help you decide how hot, cold, wet, or windy it might be!

Date:

Astronomy

Mar. 06, 2013 Rise Set
Actual Time 6:21 AM CST 6:01 PM CST
Civil Twilight 5:56 AM CST 6:26 PM CST
Nautical Twilight 5:28 AM CST 6:54 PM CST
Astronomical Twilight 5:00 AM CST 7:23 PM CST
Moon 2:16 AM CST (3/6) 12:57 PM CST (3/6)
Length of Visible Light 12h 29m
Length of Day
11h 40m
Waning Crescent, 29% of the Moon is Illuminated
Mar 6
Waning Crescent
Mar 11
New
Mar 19
First Quarter
Mar 27
Full
Apr 2
Last Quarter

Hourly Weather History & Observations

Time (CST) Temp. Windchill Dew Point Humidity Pressure Visibility Wind Dir Wind Speed Gust Speed Precip Events Conditions
12:54 AM 45.0 °F 41.8 °F 21.9 °F 40% 30.22 in 10.0 mi NW 5.8 mph - N/A   Clear
1:54 AM 43.0 °F 38.8 °F 21.9 °F 43% 30.22 in 10.0 mi WNW 6.9 mph - N/A   Clear
2:54 AM 42.1 °F 37.7 °F 23.0 °F 47% 30.22 in 10.0 mi NW 6.9 mph - N/A   Clear
3:54 AM 39.9 °F 35.8 °F 23.0 °F 51% 30.24 in 10.0 mi NW 5.8 mph - N/A   Clear
4:54 AM 39.0 °F 35.7 °F 23.0 °F 53% 30.26 in 10.0 mi NW 4.6 mph - N/A   Clear
5:54 AM 37.9 °F 32.7 °F 24.1 °F 57% 30.27 in 10.0 mi NW 6.9 mph - N/A   Clear
6:54 AM 39.0 °F 33.4 °F 24.1 °F 55% 30.30 in 10.0 mi NNW 8.1 mph - N/A   Clear
7:54 AM 41.0 °F 32.8 °F 25.0 °F 53% 30.32 in 10.0 mi North 16.1 mph 20.7 mph N/A   Clear
8:54 AM 43.0 °F 36.4 °F 25.0 °F 49% 30.34 in 10.0 mi NNW 12.7 mph - N/A   Clear
9:54 AM 45.0 °F 39.3 °F 24.1 °F 44% 30.34 in 10.0 mi NNW 11.5 mph - N/A   Clear
10:54 AM 46.9 °F - 25.0 °F 42% 30.33 in 10.0 mi North 12.7 mph - N/A   Clear
11:54 AM 48.0 °F - 25.0 °F 41% 30.33 in 10.0 mi North 11.5 mph 16.1 mph N/A   Clear
12:54 PM 50.0 °F - 24.1 °F 36% 30.30 in 10.0 mi North 11.5 mph 18.4 mph N/A   Clear
1:54 PM 52.0 °F - 25.0 °F 35% 30.29 in 10.0 mi NNW 13.8 mph 19.6 mph N/A   Clear
2:54 PM 52.0 °F - 25.0 °F 35% 30.27 in 10.0 mi North 12.7 mph 18.4 mph N/A   Clear
3:54 PM 52.0 °F - 26.1 °F 37% 30.26 in 10.0 mi North 12.7 mph - N/A   Clear
4:54 PM 51.1 °F - 26.1 °F 38% 30.27 in 10.0 mi North 11.5 mph - N/A   Clear
5:54 PM 46.9 °F - 27.0 °F 46% 30.29 in 10.0 mi NW 5.8 mph - N/A   Clear
6:54 PM 42.1 °F 37.7 °F 28.0 °F 58% 30.29 in 10.0 mi NNW 6.9 mph - N/A   Clear
7:54 PM 42.1 °F 38.4 °F 28.9 °F 60% 30.30 in 10.0 mi NNW 5.8 mph - N/A   Clear
8:54 PM 39.9 °F 36.7 °F 28.9 °F 65% 30.31 in 10.0 mi North 4.6 mph - N/A   Clear
9:54 PM 39.0 °F 36.8 °F 28.9 °F 67% 30.31 in 10.0 mi North 3.5 mph - N/A   Clear
10:54 PM 36.0 °F - 28.9 °F 76% 30.30 in 10.0 mi Calm Calm - N/A   Clear
11:54 PM 33.1 °F - 28.9 °F 85% 30.30 in 10.0 mi Calm Calm - N/A   Clear